Time,TemperatureF,DewpointF,PressureIn,WindDirection,WindDirectionDegrees,WindSpeedMPH,WindSpeedGustMPH,Humidity,HourlyPrecipIn,Conditions,Clouds,dailyrainin,SoftwareType,DateUTC
2013-10-02 00:00:00,56.2,49.8,29.98,WSW,242,0.0,8.0,79,0.00,,,0.00,Wunderground v.1.15,2013-10-02 05:00:00,
2013-10-02 00:06:00,55.9,49.8,29.98,WSW,242,0.0,8.0,80,0.00,,,0.00,Wunderground v.1.15,2013-10-02 05:06:00,
2013-10-02 00:12:00,55.7,50.0,29.98,WSW,242,0.0,8.0,81,0.00,,,0.00,Wunderground v.1.15,2013-10-02 05:12:00,
2013-10-02 00:18:00,55.4,49.7,29.98,WSW,242,0.0,8.0,81,0.00,,,0.00,Wunderground v.1.15,2013-10-02 05:18:00,
2013-10-02 00:23:00,55.2,49.8,29.98,WSW,242,0.0,8.0,82,0.00,,,0.00,Wunderground v.1.15,2013-10-02 05:23:00,
2013-10-02 00:30:00,55.0,49.6,29.98,WSW,242,0.0,8.0,82,0.00,,,0.00,Wunderground v.1.15,2013-10-02 05:30:00,
2013-10-02 00:36:00,54.7,49.6,29.98,WSW,242,0.0,8.0,83,0.00,,,0.00,Wunderground v.1.15,2013-10-02 05:36:00,
2013-10-02 00:42:00,54.4,49.3,29.98,WSW,242,0.0,8.0,83,0.00,,,0.00,Wunderground v.1.15,2013-10-02 05:42:00,
2013-10-02 00:48:00,54.2,49.8,29.98,WSW,242,0.0,8.0,85,0.00,,,0.00,Wunderground v.1.15,2013-10-02 05:48:00,
2013-10-02 00:53:00,53.9,49.5,29.98,WSW,242,0.0,8.0,85,0.00,,,0.00,Wunderground v.1.15,2013-10-02 05:53:00,
2013-10-02 01:00:00,53.7,49.6,29.98,WSW,242,0.0,8.0,86,0.00,,,0.00,Wunderground v.1.15,2013-10-02 06:00:00,
2013-10-02 01:05:00,53.6,49.5,29.98,WSW,242,0.0,8.0,86,0.00,,,0.00,Wunderground v.1.15,2013-10-02 06:05:00,
2013-10-02 01:12:00,53.3,49.2,29.98,WSW,242,0.0,8.0,86,0.00,,,0.00,Wunderground v.1.15,2013-10-02 06:12:00,
2013-10-02 01:18:00,53.2,49.1,29.98,WSW,242,0.0,8.0,86,0.00,,,0.00,Wunderground v.1.15,2013-10-02 06:18:00,
2013-10-02 01:24:00,53.0,49.2,29.98,WSW,242,0.0,8.0,87,0.00,,,0.00,Wunderground v.1.15,2013-10-02 06:24:00,
2013-10-02 01:30:00,52.9,49.1,29.99,WSW,242,0.0,8.0,87,0.00,,,0.00,Wunderground v.1.15,2013-10-02 06:30:00,
2013-10-02 01:36:00,52.8,49.0,29.99,WSW,242,0.0,8.0,87,0.00,,,0.00,Wunderground v.1.15,2013-10-02 06:36:00,
2013-10-02 01:42:00,52.6,48.8,29.99,WSW,242,0.0,8.0,87,0.00,,,0.00,Wunderground v.1.15,2013-10-02 06:42:00,
2013-10-02 01:47:00,52.4,48.6,29.99,WSW,242,0.0,8.0,87,0.00,,,0.00,Wunderground v.1.15,2013-10-02 06:47:00,
2013-10-02 01:54:00,52.5,49.0,29.99,WSW,242,0.0,8.0,88,0.00,,,0.00,Wunderground v.1.15,2013-10-02 06:54:00,
2013-10-02 02:00:00,52.4,48.9,30.00,WSW,242,0.0,8.0,88,0.00,,,0.00,Wunderground v.1.15,2013-10-02 07:00:00,
2013-10-02 02:06:00,52.3,48.9,30.00,WSW,242,0.0,8.0,88,0.00,,,0.00,Wunderground v.1.15,2013-10-02 07:06:00,
2013-10-02 02:12:00,52.2,48.8,30.00,WSW,242,0.0,8.0,88,0.00,,,0.00,Wunderground v.1.15,2013-10-02 07:12:00,
2013-10-02 02:18:00,52.3,49.2,30.00,WSW,242,0.0,8.0,89,0.00,,,0.00,Wunderground v.1.15,2013-10-02 07:18:00,
2013-10-02 02:24:00,52.3,49.5,30.00,WSW,242,0.0,8.0,90,0.00,,,0.00,Wunderground v.1.15,2013-10-02 07:24:00,
2013-10-02 02:30:00,52.2,49.4,30.00,WSW,242,0.0,8.0,90,0.00,,,0.00,Wunderground v.1.15,2013-10-02 07:30:00,
2013-10-02 02:36:00,52.1,49.3,30.00,WSW,242,0.0,8.0,90,0.00,,,0.00,Wunderground v.1.15,2013-10-02 07:36:00,
2013-10-02 02:41:00,52.5,49.7,30.00,WSW,242,0.0,8.0,90,0.00,,,0.00,Wunderground v.1.15,2013-10-02 07:41:00,
2013-10-02 02:48:00,52.6,49.4,30.00,WSW,242,0.0,8.0,89,0.00,,,0.00,Wunderground v.1.15,2013-10-02 07:48:00,
2013-10-02 02:54:00,52.7,49.5,30.01,WSW,242,0.0,8.0,89,0.00,,,0.00,Wunderground v.1.15,2013-10-02 07:54:00,
2013-10-02 03:00:00,52.5,49.0,30.01,WSW,242,0.0,8.0,88,0.00,,,0.00,Wunderground v.1.15,2013-10-02 08:00:00,
2013-10-02 03:05:00,52.2,49.1,30.01,WSW,242,0.0,8.0,89,0.00,,,0.00,Wunderground v.1.15,2013-10-02 08:05:00,
2013-10-02 03:12:00,52.0,48.9,30.01,WSW,242,0.0,8.0,89,0.00,,,0.00,Wunderground v.1.15,2013-10-02 08:12:00,
2013-10-02 03:18:00,51.8,48.7,30.01,WSW,242,0.0,8.0,89,0.00,,,0.00,Wunderground v.1.15,2013-10-02 08:18:00,
2013-10-02 03:24:00,51.7,48.6,30.01,WSW,242,0.0,8.0,89,0.00,,,0.00,Wunderground v.1.15,2013-10-02 08:24:00,
2013-10-02 03:30:00,51.5,48.4,30.01,WSW,242,0.0,8.0,89,0.00,,,0.00,Wunderground v.1.15,2013-10-02 08:30:00,
2013-10-02 03:35:00,51.4,48.6,30.01,WSW,242,0.0,8.0,90,0.00,,,0.00,Wunderground v.1.15,2013-10-02 08:35:00,
2013-10-02 03:42:00,51.3,48.5,30.01,WSW,242,0.0,8.0,90,0.00,,,0.00,Wunderground v.1.15,2013-10-02 08:42:00,
2013-10-02 03:48:00,51.2,48.4,30.01,WSW,242,0.0,8.0,90,0.00,,,0.00,Wunderground v.1.15,2013-10-02 08:48:00,
2013-10-02 03:54:00,51.0,47.9,30.01,WSW,242,0.0,8.0,89,0.00,,,0.00,Wunderground v.1.15,2013-10-02 08:54:00,
2013-10-02 04:00:00,50.8,48.0,30.01,WSW,242,0.0,8.0,90,0.00,,,0.00,Wunderground v.1.15,2013-10-02 09:00:00,
2013-10-02 04:05:00,50.6,47.5,30.01,WSW,242,0.0,8.0,89,0.00,,,0.00,Wunderground v.1.15,2013-10-02 09:05:00,
2013-10-02 04:12:00,50.5,47.1,30.02,WSW,242,0.0,8.0,88,0.00,,,0.00,Wunderground v.1.15,2013-10-02 09:12:00,
2013-10-02 04:18:00,50.5,47.1,30.02,WSW,242,0.0,8.0,88,0.00,,,0.00,Wunderground v.1.15,2013-10-02 09:18:00,
2013-10-02 04:24:00,50.4,47.0,30.02,WSW,242,0.0,8.0,88,0.00,,,0.00,Wunderground v.1.15,2013-10-02 09:24:00,
2013-10-02 04:30:00,50.3,46.9,30.02,WSW,242,0.0,8.0,88,0.00,,,0.00,Wunderground v.1.15,2013-10-02 09:30:00,
2013-10-02 04:36:00,50.2,46.8,30.02,WSW,242,0.0,8.0,88,0.00,,,0.00,Wunderground v.1.15,2013-10-02 09:36:00,
2013-10-02 04:42:00,50.1,46.7,30.02,WSW,242,0.0,8.0,88,0.00,,,0.00,Wunderground v.1.15,2013-10-02 09:42:00,
2013-10-02 04:48:00,50.1,46.7,30.02,WSW,242,0.0,8.0,88,0.00,,,0.00,Wunderground v.1.15,2013-10-02 09:48:00,
2013-10-02 04:54:00,50.1,46.7,30.02,WSW,242,0.0,8.0,88,0.00,,,0.00,Wunderground v.1.15,2013-10-02 09:54:00,
2013-10-02 04:59:00,50.0,46.9,30.02,WSW,242,0.0,8.0,89,0.00,,,0.00,Wunderground v.1.15,2013-10-02 09:59:00,
2013-10-02 05:06:00,49.9,46.8,30.02,WSW,242,0.0,8.0,89,0.00,,,0.00,Wunderground v.1.15,2013-10-02 10:06:00,
2013-10-02 05:12:00,50.0,46.3,30.02,WSW,242,0.0,8.0,87,0.00,,,0.00,Wunderground v.1.15,2013-10-02 10:12:00,
2013-10-02 05:18:00,50.1,46.1,30.02,WSW,242,0.0,8.0,86,0.00,,,0.00,Wunderground v.1.15,2013-10-02 10:18:00,
2013-10-02 05:24:00,50.1,46.1,30.02,WSW,242,0.0,8.0,86,0.00,,,0.00,Wunderground v.1.15,2013-10-02 10:24:00,
2013-10-02 05:29:00,50.1,46.1,30.02,WSW,242,0.0,8.0,86,0.00,,,0.00,Wunderground v.1.15,2013-10-02 10:29:00,
2013-10-02 05:36:00,50.2,45.2,30.02,WSW,242,0.0,8.0,83,0.00,,,0.00,Wunderground v.1.15,2013-10-02 10:36:00,
2013-10-02 05:42:00,51.7,44.4,30.02,WSW,242,0.0,8.0,76,0.00,,,0.00,Wunderground v.1.15,2013-10-02 10:42:00,
2013-10-02 05:48:00,52.5,44.4,30.02,North,5,0.0,8.0,74,0.00,,,0.00,Wunderground v.1.15,2013-10-02 10:48:00,
2013-10-02 05:54:00,52.5,44.8,30.03,North,5,0.0,8.0,75,0.00,,,0.00,Wunderground v.1.15,2013-10-02 10:54:00,
2013-10-02 05:59:00,52.4,44.4,30.03,North,8,0.0,8.0,74,0.00,,,0.00,Wunderground v.1.15,2013-10-02 10:59:00,
2013-10-02 06:06:00,52.8,43.7,30.03,East,82,0.0,8.0,71,0.00,,,0.00,Wunderground v.1.15,2013-10-02 11:06:00,
2013-10-02 06:11:00,52.8,44.0,30.03,East,82,0.0,8.0,72,0.00,,,0.00,Wunderground v.1.15,2013-10-02 11:11:00,
2013-10-02 06:18:00,52.7,43.6,30.03,East,79,0.0,8.0,71,0.00,,,0.00,Wunderground v.1.15,2013-10-02 11:18:00,
2013-10-02 06:23:00,53.4,43.1,30.03,ENE,63,0.0,8.0,68,0.00,,,0.00,Wunderground v.1.15,2013-10-02 11:23:00,
2013-10-02 06:30:00,53.7,43.4,30.03,East,87,0.0,8.0,68,0.00,,,0.00,Wunderground v.1.15,2013-10-02 11:30:00,
2013-10-02 06:36:00,53.6,43.3,30.03,East,88,0.0,8.0,68,0.00,,,0.00,Wunderground v.1.15,2013-10-02 11:36:00,
2013-10-02 06:42:00,53.2,43.3,30.04,East,86,0.0,8.0,69,0.00,,,0.00,Wunderground v.1.15,2013-10-02 11:42:00,
2013-10-02 06:48:00,52.6,43.5,30.04,East,86,0.0,8.0,71,0.00,,,0.00,Wunderground v.1.15,2013-10-02 11:48:00,
2013-10-02 06:53:00,52.3,43.9,30.04,East,86,0.0,8.0,73,0.00,,,0.00,Wunderground v.1.15,2013-10-02 11:53:00,
2013-10-02 07:00:00,52.4,44.4,30.04,East,86,0.0,8.0,74,0.00,,,0.00,Wunderground v.1.15,2013-10-02 12:00:00,
2013-10-02 07:05:00,53.2,43.7,30.04,ENE,78,0.0,8.0,70,0.00,,,0.00,Wunderground v.1.15,2013-10-02 12:05:00,
2013-10-02 07:12:00,54.2,43.5,30.04,East,88,0.0,8.0,67,0.00,,,0.00,Wunderground v.1.15,2013-10-02 12:12:00,
2013-10-02 07:18:00,54.6,43.5,30.04,ENE,65,0.0,8.0,66,0.00,,,0.00,Wunderground v.1.15,2013-10-02 12:18:00,
2013-10-02 07:23:00,54.7,43.6,30.04,ENE,65,0.0,8.0,66,0.00,,,0.00,Wunderground v.1.15,2013-10-02 12:23:00,
2013-10-02 07:30:00,54.8,43.7,30.04,SE,125,0.0,8.0,66,0.00,,,0.00,Wunderground v.1.15,2013-10-02 12:30:00,
2013-10-02 07:35:00,54.9,43.7,30.04,East,89,0.0,8.0,66,0.00,,,0.00,Wunderground v.1.15,2013-10-02 12:35:00,
2013-10-02 07:42:00,55.0,43.8,30.04,East,92,0.0,8.0,66,0.00,,,0.00,Wunderground v.1.15,2013-10-02 12:42:00,
2013-10-02 07:48:00,55.3,43.7,30.04,ENE,65,0.0,8.0,65,0.00,,,0.00,Wunderground v.1.15,2013-10-02 12:48:00,
2013-10-02 07:54:00,55.5,43.9,30.04,ENE,65,0.0,8.0,65,0.00,,,0.00,Wunderground v.1.15,2013-10-02 12:54:00,
2013-10-02 08:00:00,55.6,44.0,30.04,ENE,65,0.0,8.0,65,0.00,,,0.00,Wunderground v.1.15,2013-10-02 13:00:00,
2013-10-02 08:06:00,55.6,44.0,30.04,ENE,65,0.0,8.0,65,0.00,,,0.00,Wunderground v.1.15,2013-10-02 13:06:00,
2013-10-02 08:12:00,55.9,44.3,30.04,ESE,116,0.0,8.0,65,0.00,,,0.00,Wunderground v.1.15,2013-10-02 13:12:00,
2013-10-02 08:17:00,56.7,44.2,30.05,ESE,123,0.0,8.0,63,0.00,,,0.00,Wunderground v.1.15,2013-10-02 13:17:00,
2013-10-02 08:24:00,57.3,44.4,30.05,ESE,108,0.0,8.0,62,0.00,,,0.00,Wunderground v.1.15,2013-10-02 13:24:00,
2013-10-02 08:29:00,57.9,44.1,30.05,ESE,113,0.0,8.0,60,0.00,,,0.00,Wunderground v.1.15,2013-10-02 13:29:00,
2013-10-02 08:36:00,58.6,44.8,30.05,ESE,110,1.0,8.0,60,0.00,,,0.00,Wunderground v.1.15,2013-10-02 13:36:00,
2013-10-02 08:42:00,59.2,44.9,30.06,SE,132,1.0,8.0,59,0.00,,,0.00,Wunderground v.1.15,2013-10-02 13:42:00,
2013-10-02 08:48:00,59.8,45.0,30.06,SE,128,1.0,8.0,58,0.00,,,0.00,Wunderground v.1.15,2013-10-02 13:48:00,
2013-10-02 08:54:00,60.4,44.6,30.06,SE,131,1.0,8.0,56,0.00,,,0.00,Wunderground v.1.15,2013-10-02 13:54:00,
2013-10-02 08:59:00,61.1,44.3,30.06,SE,126,2.0,2.0,54,0.00,,,0.00,Wunderground v.1.15,2013-10-02 13:59:00,
2013-10-02 09:06:00,61.8,44.0,30.05,SE,126,2.0,8.0,52,0.00,,,0.00,Wunderground v.1.15,2013-10-02 14:06:00,
2013-10-02 09:12:00,62.4,45.0,30.05,SE,139,2.0,8.0,53,0.00,,,0.00,Wunderground v.1.15,2013-10-02 14:12:00,
2013-10-02 09:18:00,62.8,43.9,30.06,ESE,123,2.0,8.0,50,0.00,,,0.00,Wunderground v.1.15,2013-10-02 14:18:00,
2013-10-02 09:24:00,63.5,45.0,30.06,ESE,113,2.0,8.0,51,0.00,,,0.00,Wunderground v.1.15,2013-10-02 14:24:00,
2013-10-02 09:30:00,64.0,44.4,30.06,ESE,113,2.0,2.0,49,0.00,,,0.00,Wunderground v.1.15,2013-10-02 14:30:00,
2013-10-02 09:36:00,64.6,43.3,30.06,SE,126,3.0,8.0,46,0.00,,,0.00,Wunderground v.1.15,2013-10-02 14:36:00,
2013-10-02 09:41:00,65.3,44.0,30.06,SE,133,3.0,8.0,46,0.00,,,0.00,Wunderground v.1.15,2013-10-02 14:41:00,
2013-10-02 09:48:00,65.9,43.9,30.06,ESE,113,3.0,8.0,45,0.00,,,0.00,Wunderground v.1.15,2013-10-02 14:48:00,
2013-10-02 09:53:00,66.3,42.5,30.06,ESE,119,3.0,8.0,42,0.00,,,0.00,Wunderground v.1.15,2013-10-02 14:53:00,
2013-10-02 10:00:00,66.8,43.6,30.06,SE,126,3.0,8.0,43,0.00,,,0.00,Wunderground v.1.15,2013-10-02 15:00:00,
2013-10-02 10:06:00,67.1,43.8,30.06,SE,131,2.0,8.0,43,0.00,,,0.00,Wunderground v.1.15,2013-10-02 15:06:00,
2013-10-02 10:12:00,67.4,43.5,30.06,SE,129,2.0,8.0,42,0.00,,,0.00,Wunderground v.1.15,2013-10-02 15:12:00,
2013-10-02 10:18:00,67.9,42.7,30.06,ESE,113,2.0,8.0,40,0.00,,,0.00,Wunderground v.1.15,2013-10-02 15:18:00,
2013-10-02 10:23:00,68.4,41.1,30.06,ESE,122,3.0,8.0,37,0.00,,,0.00,Wunderground v.1.15,2013-10-02 15:23:00,
2013-10-02 10:30:00,69.0,40.9,30.05,ESE,122,4.0,4.0,36,0.00,,,0.00,Wunderground v.1.15,2013-10-02 15:30:00,
2013-10-02 10:36:00,69.4,41.3,30.05,ESE,113,4.0,8.0,36,0.00,,,0.00,Wunderground v.1.15,2013-10-02 15:36:00,
2013-10-02 10:37:00,69.5,41.4,30.05,SE,133,4.0,8.0,36,0.00,,,0.00,Wunderground v.1.15,2013-10-02 15:37:00,
2013-10-02 10:44:00,69.7,40.8,30.05,SE,134,4.0,8.0,35,0.00,,,0.00,Wunderground v.1.15,2013-10-02 15:44:00,
2013-10-02 10:50:00,69.9,40.2,30.05,SE,136,5.0,8.0,34,0.00,,,0.00,Wunderground v.1.15,2013-10-02 15:50:00,
2013-10-02 10:56:00,70.2,41.3,30.05,SE,134,5.0,8.0,35,0.00,,,0.00,Wunderground v.1.15,2013-10-02 15:56:00,
2013-10-02 11:02:00,70.8,41.0,30.04,ESE,108,3.0,8.0,34,0.00,,,0.00,Wunderground v.1.15,2013-10-02 16:02:00,
2013-10-02 11:08:00,71.2,40.6,30.04,SE,126,4.0,9.0,33,0.00,,,0.00,Wunderground v.1.15,2013-10-02 16:08:00,
2013-10-02 11:14:00,71.0,39.6,30.04,ESE,110,6.0,8.0,32,0.00,,,0.00,Wunderground v.1.15,2013-10-02 16:14:00,
2013-10-02 11:19:00,71.1,40.5,30.03,SE,131,6.0,8.0,33,0.00,,,0.00,Wunderground v.1.15,2013-10-02 16:19:00,
2013-10-02 11:26:00,71.8,40.3,30.03,SE,128,6.0,9.0,32,0.00,,,0.00,Wunderground v.1.15,2013-10-02 16:26:00,
2013-10-02 11:31:00,72.3,40.8,30.03,SE,141,6.0,7.0,32,0.00,,,0.00,Wunderground v.1.15,2013-10-02 16:31:00,
2013-10-02 11:38:00,72.4,40.0,30.02,ESE,116,4.0,8.0,31,0.00,,,0.00,Wunderground v.1.15,2013-10-02 16:38:00,
2013-10-02 11:44:00,72.5,40.1,30.02,East,94,4.0,9.0,31,0.00,,,0.00,Wunderground v.1.15,2013-10-02 16:44:00,
2013-10-02 11:50:00,73.0,40.6,30.02,ESE,117,5.0,8.0,31,0.00,,,0.00,Wunderground v.1.15,2013-10-02 16:50:00,
2013-10-02 11:56:00,73.5,39.3,30.02,SE,127,5.0,9.0,29,0.00,,,0.00,Wunderground v.1.15,2013-10-02 16:56:00,
2013-10-02 12:01:00,73.5,40.2,30.02,ESE,108,5.0,8.0,30,0.00,,,0.00,Wunderground v.1.15,2013-10-02 17:01:00,
2013-10-02 12:08:00,74.0,41.4,30.02,SE,146,4.0,8.0,31,0.00,,,0.00,Wunderground v.1.15,2013-10-02 17:08:00,
2013-10-02 12:14:00,74.1,40.7,30.02,ESE,122,4.0,8.0,30,0.00,,,0.00,Wunderground v.1.15,2013-10-02 17:14:00,
2013-10-02 12:20:00,74.3,42.5,30.02,ESE,116,5.0,5.0,32,0.00,,,0.00,Wunderground v.1.15,2013-10-02 17:20:00,
2013-10-02 12:26:00,74.5,41.9,30.01,SE,139,4.0,8.0,31,0.00,,,0.00,Wunderground v.1.15,2013-10-02 17:26:00,
2013-10-02 12:32:00,74.9,43.0,30.01,ESE,103,5.0,8.0,32,0.00,,,0.00,Wunderground v.1.15,2013-10-02 17:32:00,
2013-10-02 12:38:00,75.3,40.8,30.01,ESE,117,5.0,8.0,29,0.00,,,0.00,Wunderground v.1.15,2013-10-02 17:38:00,
2013-10-02 12:43:00,75.9,42.2,30.01,ESE,114,4.0,7.0,30,0.00,,,0.00,Wunderground v.1.15,2013-10-02 17:43:00,
2013-10-02 12:50:00,76.1,42.4,30.01,ESE,118,5.0,8.0,30,0.00,,,0.00,Wunderground v.1.15,2013-10-02 17:50:00,
2013-10-02 12:55:00,76.2,42.5,30.00,SE,142,6.0,8.0,30,0.00,,,0.00,Wunderground v.1.15,2013-10-02 17:55:00,
2013-10-02 13:02:00,76.4,42.7,30.00,SE,140,7.0,9.0,30,0.00,,,0.00,Wunderground v.1.15,2013-10-02 18:02:00,
2013-10-02 13:08:00,76.3,44.3,30.00,SE,124,8.0,9.0,32,0.00,,,0.00,Wunderground v.1.15,2013-10-02 18:08:00,
2013-10-02 13:14:00,76.4,44.4,30.00,SE,126,7.0,11.0,32,0.00,,,0.00,Wunderground v.1.15,2013-10-02 18:14:00,
2013-10-02 13:20:00,76.8,45.5,30.00,SE,142,7.0,8.0,33,0.00,,,0.00,Wunderground v.1.15,2013-10-02 18:20:00,
2013-10-02 13:25:00,76.9,45.6,29.99,SE,132,6.0,8.0,33,0.00,,,0.00,Wunderground v.1.15,2013-10-02 18:25:00,
2013-10-02 13:32:00,77.1,45.0,29.99,SE,126,5.0,7.0,32,0.00,,,0.00,Wunderground v.1.15,2013-10-02 18:32:00,
2013-10-02 13:38:00,77.2,45.9,29.98,ESE,118,5.0,8.0,33,0.00,,,0.00,Wunderground v.1.15,2013-10-02 18:38:00,
2013-10-02 13:44:00,77.5,46.1,29.98,ESE,122,5.0,8.0,33,0.00,,,0.00,Wunderground v.1.15,2013-10-02 18:44:00,
2013-10-02 13:50:00,77.1,46.6,29.98,ESE,116,6.0,6.0,34,0.00,,,0.00,Wunderground v.1.15,2013-10-02 18:50:00,
2013-10-02 13:55:00,77.4,46.8,29.98,SE,128,5.0,8.0,34,0.00,,,0.00,Wunderground v.1.15,2013-10-02 18:55:00,
2013-10-02 14:02:00,77.6,47.0,29.98,SE,146,5.0,8.0,34,0.00,,,0.00,Wunderground v.1.15,2013-10-02 19:02:00,
2013-10-02 14:07:00,77.7,47.9,29.97,East,101,6.0,8.0,35,0.00,,,0.00,Wunderground v.1.15,2013-10-02 19:07:00,
2013-10-02 14:14:00,77.8,48.7,29.97,SSE,152,5.0,8.0,36,0.00,,,0.00,Wunderground v.1.15,2013-10-02 19:14:00,
2013-10-02 14:19:00,77.9,48.0,29.97,SE,131,5.0,5.0,35,0.00,,,0.00,Wunderground v.1.15,2013-10-02 19:19:00,
2013-10-02 14:26:00,78.0,48.9,29.96,East,94,6.0,9.0,36,0.00,,,0.00,Wunderground v.1.15,2013-10-02 19:26:00,
2013-10-02 14:32:00,77.9,49.5,29.96,ESE,119,6.0,8.0,37,0.00,,,0.00,Wunderground v.1.15,2013-10-02 19:32:00,
2013-10-02 14:38:00,78.0,49.6,29.95,SE,132,6.0,10.0,37,0.00,,,0.00,Wunderground v.1.15,2013-10-02 19:38:00,
2013-10-02 14:44:00,78.3,50.6,29.95,SE,126,5.0,8.0,38,0.00,,,0.00,Wunderground v.1.15,2013-10-02 19:44:00,
2013-10-02 14:49:00,78.6,50.9,29.95,ESE,115,5.0,5.0,38,0.00,,,0.00,Wunderground v.1.15,2013-10-02 19:49:00,
2013-10-02 14:56:00,78.7,51.0,29.94,SE,128,5.0,8.0,38,0.00,,,0.00,Wunderground v.1.15,2013-10-02 19:56:00,
2013-10-02 15:02:00,79.1,51.3,29.94,SE,132,5.0,8.0,38,0.00,,,0.00,Wunderground v.1.15,2013-10-02 20:02:00,
2013-10-02 15:08:00,79.5,52.4,29.94,SSE,150,4.0,8.0,39,0.00,,,0.00,Wunderground v.1.15,2013-10-02 20:08:00,
2013-10-02 15:13:00,79.5,51.7,29.94,ESE,120,4.0,8.0,38,0.00,,,0.00,Wunderground v.1.15,2013-10-02 20:13:00,
2013-10-02 15:20:00,79.6,52.5,29.94,ESE,122,6.0,6.0,39,0.00,,,0.00,Wunderground v.1.15,2013-10-02 20:20:00,
2013-10-02 15:25:00,79.7,52.5,29.93,SE,135,5.0,8.0,39,0.00,,,0.00,Wunderground v.1.15,2013-10-02 20:25:00,
2013-10-02 15:32:00,80.0,52.8,29.93,SE,124,5.0,8.0,39,0.00,,,0.00,Wunderground v.1.15,2013-10-02 20:32:00,
2013-10-02 15:38:00,79.9,52.7,29.93,ESE,120,5.0,8.0,39,0.00,,,0.00,Wunderground v.1.15,2013-10-02 20:38:00,
2013-10-02 15:44:00,80.0,52.8,29.92,SE,137,6.0,8.0,39,0.00,,,0.00,Wunderground v.1.15,2013-10-02 20:44:00,
2013-10-02 15:50:00,80.3,53.1,29.92,ESE,110,4.0,8.0,39,0.00,,,0.00,Wunderground v.1.15,2013-10-02 20:50:00,
2013-10-02 15:55:00,80.4,53.9,29.92,ESE,117,4.0,8.0,40,0.00,,,0.00,Wunderground v.1.15,2013-10-02 20:55:00,
2013-10-02 16:02:00,80.5,54.0,29.92,ESE,118,4.0,8.0,40,0.00,,,0.00,Wunderground v.1.15,2013-10-02 21:02:00,
2013-10-02 16:08:00,80.7,54.1,29.91,ESE,123,4.0,8.0,40,0.00,,,0.00,Wunderground v.1.15,2013-10-02 21:08:00,
2013-10-02 16:14:00,80.6,54.0,29.91,ESE,122,5.0,8.0,40,0.00,,,0.00,Wunderground v.1.15,2013-10-02 21:14:00,
2013-10-02 16:20:00,80.8,54.2,29.91,ESE,113,4.0,4.0,40,0.00,,,0.00,Wunderground v.1.15,2013-10-02 21:20:00,
2013-10-02 16:25:00,80.9,54.3,29.90,ESE,118,4.0,8.0,40,0.00,,,0.00,Wunderground v.1.15,2013-10-02 21:25:00,
2013-10-02 16:32:00,80.5,54.6,29.90,SE,125,5.0,8.0,41,0.00,,,0.00,Wunderground v.1.15,2013-10-02 21:32:00,
2013-10-02 16:37:00,80.2,55.0,29.90,SE,128,4.0,8.0,42,0.00,,,0.00,Wunderground v.1.15,2013-10-02 21:37:00,
2013-10-02 16:44:00,80.1,54.9,29.89,ESE,113,4.0,8.0,42,0.00,,,0.00,Wunderground v.1.15,2013-10-02 21:44:00,
2013-10-02 16:49:00,80.3,55.1,29.89,SE,136,4.0,8.0,42,0.00,,,0.00,Wunderground v.1.15,2013-10-02 21:49:00,
2013-10-02 16:56:00,80.2,55.0,29.89,ESE,123,4.0,8.0,42,0.00,,,0.00,Wunderground v.1.15,2013-10-02 21:56:00,
2013-10-02 17:02:00,80.0,54.8,29.89,SE,128,4.0,8.0,42,0.00,,,0.00,Wunderground v.1.15,2013-10-02 22:02:00,
2013-10-02 17:08:00,80.3,55.1,29.89,ESE,120,4.0,8.0,42,0.00,,,0.00,Wunderground v.1.15,2013-10-02 22:08:00,
2013-10-02 17:14:00,80.3,55.8,29.89,SE,128,4.0,8.0,43,0.00,,,0.00,Wunderground v.1.15,2013-10-02 22:14:00,
2013-10-02 17:19:00,80.5,55.9,29.89,SE,130,3.0,8.0,43,0.00,,,0.00,Wunderground v.1.15,2013-10-02 22:19:00,
2013-10-02 17:26:00,80.4,56.5,29.89,SE,136,4.0,8.0,44,0.00,,,0.00,Wunderground v.1.15,2013-10-02 22:26:00,
2013-10-02 17:32:00,80.2,56.3,29.88,SE,132,4.0,8.0,44,0.00,,,0.00,Wunderground v.1.15,2013-10-02 22:32:00,
2013-10-02 17:38:00,80.1,56.2,29.88,SE,125,4.0,8.0,44,0.00,,,0.00,Wunderground v.1.15,2013-10-02 22:38:00,
2013-10-02 17:44:00,80.0,56.7,29.88,ESE,114,4.0,8.0,45,0.00,,,0.00,Wunderground v.1.15,2013-10-02 22:44:00,
2013-10-02 17:50:00,79.9,57.3,29.88,SE,132,4.0,4.0,46,0.00,,,0.00,Wunderground v.1.15,2013-10-02 22:50:00,
2013-10-02 17:55:00,79.7,57.1,29.88,SE,140,3.0,8.0,46,0.00,,,0.00,Wunderground v.1.15,2013-10-02 22:55:00,
2013-10-02 18:02:00,79.5,57.5,29.88,ESE,123,3.0,8.0,47,0.00,,,0.00,Wunderground v.1.15,2013-10-02 23:02:00,
2013-10-02 18:07:00,79.2,57.8,29.88,ESE,118,2.0,8.0,48,0.00,,,0.00,Wunderground v.1.15,2013-10-02 23:07:00,
2013-10-02 18:14:00,78.9,58.1,29.88,SE,136,3.0,8.0,49,0.00,,,0.00,Wunderground v.1.15,2013-10-02 23:14:00,
2013-10-02 18:19:00,78.4,58.2,29.87,ESE,123,3.0,3.0,50,0.00,,,0.00,Wunderground v.1.15,2013-10-02 23:19:00,
2013-10-02 18:26:00,78.0,58.4,29.87,SE,132,3.0,8.0,51,0.00,,,0.00,Wunderground v.1.15,2013-10-02 23:26:00,
2013-10-02 18:32:00,77.6,58.6,29.87,SE,131,4.0,8.0,52,0.00,,,0.00,Wunderground v.1.15,2013-10-02 23:32:00,
2013-10-02 18:38:00,77.3,58.8,29.87,SE,125,3.0,8.0,53,0.00,,,0.00,Wunderground v.1.15,2013-10-02 23:38:00,
2013-10-02 18:44:00,76.9,59.0,29.87,SE,132,3.0,8.0,54,0.00,,,0.00,Wunderground v.1.15,2013-10-02 23:44:00,
2013-10-02 18:50:00,76.5,59.1,29.87,ESE,122,2.0,8.0,55,0.00,,,0.00,Wunderground v.1.15,2013-10-02 23:50:00,
2013-10-02 18:56:00,76.2,59.4,29.87,SE,129,2.0,8.0,56,0.00,,,0.00,Wunderground v.1.15,2013-10-02 23:56:00,
2013-10-02 19:01:00,75.8,59.5,29.87,SE,139,3.0,8.0,57,0.00,,,0.00,Wunderground v.1.15,2013-10-03 00:01:00,
2013-10-02 19:08:00,75.4,59.6,29.87,SE,128,3.0,8.0,58,0.00,,,0.00,Wunderground v.1.15,2013-10-03 00:08:00,
2013-10-02 19:13:00,75.0,59.7,29.87,SE,128,3.0,8.0,59,0.00,,,0.00,Wunderground v.1.15,2013-10-03 00:13:00,
2013-10-02 19:20:00,74.7,59.9,29.87,SE,126,2.0,8.0,60,0.00,,,0.00,Wunderground v.1.15,2013-10-03 00:20:00,
2013-10-02 19:26:00,74.3,60.0,29.87,ESE,118,2.0,8.0,61,0.00,,,0.00,Wunderground v.1.15,2013-10-03 00:26:00,
2013-10-02 19:32:00,74.0,60.2,29.87,SE,133,2.0,8.0,62,0.00,,,0.00,Wunderground v.1.15,2013-10-03 00:32:00,
2013-10-02 19:38:00,73.7,60.3,29.87,SE,145,2.0,8.0,63,0.00,,,0.00,Wunderground v.1.15,2013-10-03 00:38:00,
2013-10-02 19:40:00,73.5,60.1,29.87,ESE,108,2.0,8.0,63,0.00,,,0.00,Wunderground v.1.15,2013-10-03 00:40:00,
2013-10-02 19:45:00,73.3,60.4,29.87,SE,136,2.0,8.0,64,0.00,,,0.00,Wunderground v.1.15,2013-10-03 00:45:00,
2013-10-02 19:52:00,73.0,60.5,29.87,ESE,119,1.0,8.0,65,0.00,,,0.00,Wunderground v.1.15,2013-10-03 00:52:00,
2013-10-02 19:58:00,72.8,60.3,29.87,ESE,113,0.0,8.0,65,0.00,,,0.00,Wunderground v.1.15,2013-10-03 00:58:00,
2013-10-02 20:04:00,72.5,60.5,29.88,East,101,0.0,8.0,66,0.00,,,0.00,Wunderground v.1.15,2013-10-03 01:04:00,
2013-10-02 20:10:00,72.1,60.5,29.88,SE,124,0.0,8.0,67,0.00,,,0.00,Wunderground v.1.15,2013-10-03 01:10:00,
2013-10-02 20:16:00,71.9,60.8,29.88,ESE,122,0.0,8.0,68,0.00,,,0.00,Wunderground v.1.15,2013-10-03 01:16:00,
2013-10-02 20:21:00,71.8,60.7,29.88,ESE,121,1.0,8.0,68,0.00,,,0.00,Wunderground v.1.15,2013-10-03 01:21:00,
2013-10-02 20:28:00,71.7,60.6,29.87,SE,126,1.0,8.0,68,0.00,,,0.00,Wunderground v.1.15,2013-10-03 01:28:00,
2013-10-02 20:33:00,71.6,60.9,29.87,SE,135,1.0,8.0,69,0.00,,,0.00,Wunderground v.1.15,2013-10-03 01:33:00,
2013-10-02 20:40:00,71.4,60.7,29.87,SE,130,1.0,8.0,69,0.00,,,0.00,Wunderground v.1.15,2013-10-03 01:40:00,
2013-10-02 20:46:00,71.1,60.8,29.87,ESE,122,1.0,8.0,70,0.00,,,0.00,Wunderground v.1.15,2013-10-03 01:46:00,
2013-10-02 20:52:00,70.7,60.4,29.87,SE,136,1.0,8.0,70,0.00,,,0.00,Wunderground v.1.15,2013-10-03 01:52:00,
2013-10-02 20:58:00,70.3,60.4,29.87,SE,135,1.0,8.0,71,0.00,,,0.00,Wunderground v.1.15,2013-10-03 01:58:00,
2013-10-02 21:04:00,70.0,60.6,29.87,SE,126,1.0,8.0,72,0.00,,,0.00,Wunderground v.1.15,2013-10-03 02:04:00,
2013-10-02 21:06:00,69.9,60.5,29.87,SE,125,1.0,8.0,72,0.00,,,0.00,Wunderground v.1.15,2013-10-03 02:06:00,
2013-10-02 21:12:00,69.7,60.7,29.87,SE,131,1.0,8.0,73,0.00,,,0.00,Wunderground v.1.15,2013-10-03 02:12:00,
2013-10-02 21:18:00,69.5,60.8,29.87,SE,133,2.0,8.0,74,0.00,,,0.00,Wunderground v.1.15,2013-10-03 02:18:00,
2013-10-02 21:24:00,69.3,60.7,29.87,SE,126,2.0,8.0,74,0.00,,,0.00,Wunderground v.1.15,2013-10-03 02:24:00,
2013-10-02 21:29:00,69.1,60.8,29.87,SE,141,2.0,8.0,75,0.00,,,0.00,Wunderground v.1.15,2013-10-03 02:29:00,
2013-10-02 21:36:00,69.0,60.7,29.87,SE,143,2.0,8.0,75,0.00,,,0.00,Wunderground v.1.15,2013-10-03 02:36:00,
2013-10-02 21:41:00,69.0,61.1,29.87,SE,133,2.0,8.0,76,0.00,,,0.00,Wunderground v.1.15,2013-10-03 02:41:00,
2013-10-02 21:48:00,68.8,60.9,29.87,SE,129,2.0,8.0,76,0.00,,,0.00,Wunderground v.1.15,2013-10-03 02:48:00,
2013-10-02 21:53:00,68.7,60.8,29.87,SE,139,2.0,8.0,76,0.00,,,0.00,Wunderground v.1.15,2013-10-03 02:53:00,
2013-10-02 22:00:00,68.6,61.1,29.87,ESE,122,2.0,8.0,77,0.00,,,0.00,Wunderground v.1.15,2013-10-03 03:00:00,
2013-10-02 22:06:00,68.5,61.0,29.87,ESE,119,2.0,8.0,77,0.00,,,0.00,Wunderground v.1.15,2013-10-03 03:06:00,
2013-10-02 22:12:00,68.4,60.9,29.87,SE,126,2.0,8.0,77,0.00,,,0.00,Wunderground v.1.15,2013-10-03 03:12:00,
2013-10-02 22:18:00,68.2,61.1,29.87,SE,136,2.0,8.0,78,0.00,,,0.00,Wunderground v.1.15,2013-10-03 03:18:00,
2013-10-02 22:24:00,67.9,60.8,29.88,ESE,113,3.0,8.0,78,0.00,,,0.00,Wunderground v.1.15,2013-10-03 03:24:00,
2013-10-02 22:30:00,67.8,60.7,29.87,SE,124,3.0,3.0,78,0.00,,,0.00,Wunderground v.1.15,2013-10-03 03:30:00,
2013-10-02 22:35:00,67.6,60.9,29.87,ESE,110,3.0,8.0,79,0.00,,,0.00,Wunderground v.1.15,2013-10-03 03:35:00,
2013-10-02 22:42:00,67.6,60.9,29.87,SE,129,3.0,8.0,79,0.00,,,0.00,Wunderground v.1.15,2013-10-03 03:42:00,
2013-10-02 22:48:00,67.4,60.7,29.88,ESE,122,2.0,8.0,79,0.00,,,0.00,Wunderground v.1.15,2013-10-03 03:48:00,
2013-10-02 22:54:00,67.1,60.7,29.88,ESE,122,2.0,8.0,80,0.00,,,0.00,Wunderground v.1.15,2013-10-03 03:54:00,
2013-10-02 23:00:00,66.8,60.8,29.87,SE,133,2.0,8.0,81,0.00,,,0.00,Wunderground v.1.15,2013-10-03 04:00:00,
2013-10-02 23:02:00,66.8,60.8,29.87,SE,126,2.0,8.0,81,0.00,,,0.00,Wunderground v.1.15,2013-10-03 04:02:00,
2013-10-02 23:03:00,66.8,60.8,29.87,SE,129,2.0,8.0,81,0.00,,,0.00,Wunderground v.1.15,2013-10-03 04:03:00,
2013-10-02 23:08:00,66.7,60.7,29.87,ESE,115,2.0,8.0,81,0.00,,,0.00,Wunderground v.1.15,2013-10-03 04:08:00,
2013-10-02 23:10:00,66.7,60.7,29.87,East,93,2.0,8.0,81,0.00,,,0.00,Wunderground v.1.15,2013-10-03 04:10:00,
2013-10-02 23:13:00,66.6,60.6,29.87,SE,129,2.0,8.0,81,0.00,,,0.00,Wunderground v.1.15,2013-10-03 04:13:00,
2013-10-02 23:20:00,66.4,60.4,29.87,SE,134,2.0,8.0,81,0.00,,,0.00,Wunderground v.1.15,2013-10-03 04:20:00,
2013-10-02 23:26:00,66.3,60.6,29.87,SE,129,2.0,8.0,82,0.00,,,0.00,Wunderground v.1.15,2013-10-03 04:26:00,
2013-10-02 23:32:00,66.2,60.5,29.87,SE,126,3.0,8.0,82,0.00,,,0.00,Wunderground v.1.15,2013-10-03 04:32:00,
2013-10-02 23:38:00,66.3,60.3,29.86,ESE,110,2.0,8.0,81,0.00,,,0.00,Wunderground v.1.15,2013-10-03 04:38:00,
2013-10-02 23:43:00,66.6,60.6,29.86,SE,145,3.0,8.0,81,0.00,,,0.00,Wunderground v.1.15,2013-10-03 04:43:00,
2013-10-02 23:50:00,66.9,60.5,29.86,ESE,103,3.0,8.0,80,0.00,,,0.00,Wunderground v.1.15,2013-10-03 04:50:00,
2013-10-02 23:56:00,67.0,60.6,29.86,SE,141,3.0,8.0,80,0.00,,,0.00,Wunderground v.1.15,2013-10-03 04:56:00,